Weather History for Benson, MN

Change the Weather History Date:

Saturday, February 1, 2014

  Actual Average Record
Temperature  
Mean Temperature 2 °F -  
Max Temperature 12 °F 21 °F 51 °F (2012)
Min Temperature -9 °F 1 °F -21 °F (1979)
Degree Days  
Heating Degree Days 64    
Moisture  
Dew Point 0 °F    
Average Humidity 77    
Maximum Humidity 85    
Minimum Humidity 67    
Precipitation  
Precipitation 0.00 in - - ()
Sea Level Pressure  
Sea Level Pressure 30.01 in    
Wind  
Wind Speed 12 mph (NNW)    
Max Wind Speed 24 mph    
Max Gust Speed 30 mph    
Visibility 10 miles    
Events Snow    
Averages and records for this station are not official NWS values.
T = Trace of Precipitation, MM = Missing Value Source: NWS Daily Summary

Daily Weather History Graph

Daily Weather History Graph

Search for Another Location

Airport:

Trip Planner

Search our weather history database for the weather conditions in past years. The results will help you decide how hot, cold, wet, or windy it might be!

Date:

Astronomy

Feb. 01, 2014 Rise Set
Actual Time 7:43 AM CST 5:29 PM CST
Civil Twilight 7:11 AM CST 6:01 PM CST
Nautical Twilight 6:36 AM CST 6:36 PM CST
Astronomical Twilight 6:01 AM CST 7:11 PM CST
Moon 8:25 AM CST (2/1) 8:16 PM CST (2/1)
Length of Visible Light 10h 49m
Length of Day
9h 46m
Waxing Crescent, 5% of the Moon is Illuminated
Feb 1
Waxing Crescent
Feb 6
First Quarter
Feb 14
Full
Feb 22
Last Quarter
Mar 1
New

Hourly Weather History & Observations

Time (CST) Temp. Windchill Dew Point Humidity Pressure Visibility Wind Dir Wind Speed Gust Speed Precip Events Conditions
12:12 AM 6.8 °F -10.0 °F 1.4 °F 79% 29.86 in 10.0 mi South 13.8 mph - N/A   Overcast
12:32 AM 6.8 °F -8.6 °F 1.4 °F 79% 29.86 in 10.0 mi South 11.5 mph - N/A   Overcast
12:53 AM 6.8 °F -7.8 °F 1.4 °F 79% 29.85 in 10.0 mi South 10.4 mph - N/A   Overcast
1:12 AM 8.6 °F -4.7 °F 3.2 °F 79% 29.84 in 10.0 mi South 9.2 mph - N/A   Overcast
1:32 AM 10.4 °F -4.1 °F 3.2 °F 73% 29.83 in 10.0 mi South 11.5 mph - N/A   Overcast
1:53 AM 10.4 °F -2.4 °F 3.2 °F 73% 29.83 in 10.0 mi South 9.2 mph - N/A   Overcast
2:12 AM 10.4 °F -4.1 °F 5.0 °F 79% 29.83 in 10.0 mi South 11.5 mph - N/A   Overcast
2:31 AM 12.2 °F -2.5 °F 5.0 °F 73% 29.83 in 10.0 mi South 12.7 mph - N/A   Overcast
2:53 AM 12.2 °F -1.8 °F 6.8 °F 79% 29.84 in 10.0 mi South 11.5 mph - N/A   Overcast
3:12 AM 12.2 °F -1.8 °F 6.8 °F 79% 29.84 in 10.0 mi South 11.5 mph - N/A   Overcast
3:32 AM 12.2 °F -0.2 °F 6.8 °F 79% 29.84 in 10.0 mi South 9.2 mph - N/A   Overcast
3:53 AM 12.2 °F -1.0 °F 6.8 °F 79% 29.83 in 10.0 mi SSW 10.4 mph - N/A   Mostly Cloudy
4:12 AM 12.2 °F 0.7 °F 6.8 °F 79% 29.84 in 10.0 mi SSW 8.1 mph - N/A   Scattered Clouds
4:32 AM 12.2 °F 0.7 °F 6.8 °F 79% 29.83 in 10.0 mi SSW 8.1 mph - N/A   Clear
4:53 AM 10.4 °F -0.4 °F 5.0 °F 79% 29.84 in 10.0 mi SSW 6.9 mph - N/A   Clear
5:12 AM 8.6 °F 0.1 °F 5.0 °F 85% 29.84 in 10.0 mi SW 4.6 mph - N/A   Clear
5:32 AM 8.6 °F 2.0 °F 3.2 °F 79% 29.85 in 10.0 mi West 3.5 mph - N/A   Clear
5:53 AM 6.8 °F - 1.4 °F 79% 29.85 in 10.0 mi Calm Calm - N/A   Clear
6:12 AM 8.6 °F -7.7 °F 5.0 °F 85% 29.86 in 10.0 mi NW 13.8 mph - N/A   Clear
6:32 AM 8.6 °F -5.5 °F 5.0 °F 85% 29.88 in 10.0 mi NNW 10.4 mph - N/A   Clear
6:53 AM 8.6 °F -7.0 °F 3.2 °F 79% 29.89 in 10.0 mi NNW 12.7 mph - N/A   Clear
7:12 AM 6.8 °F -6.9 °F 3.2 °F 85% 29.90 in 10.0 mi North 9.2 mph - N/A   Clear
7:32 AM 6.8 °F -7.8 °F 3.2 °F 85% 29.91 in 10.0 mi NNW 10.4 mph - N/A   Scattered Clouds
7:53 AM 6.8 °F -4.8 °F 3.2 °F 85% 29.92 in 10.0 mi North 6.9 mph - N/A Snow Light Snow
8:12 AM 8.6 °F -9.5 °F 3.2 °F 79% 29.92 in 10.0 mi NNW 17.3 mph 20.7 mph N/A   Clear
8:33 AM 8.6 °F -8.3 °F 3.2 °F 79% 29.93 in 10.0 mi North 15.0 mph - N/A Snow Light Snow
8:52 AM 8.6 °F -6.3 °F 3.2 °F 79% 29.95 in 10.0 mi North 11.5 mph - N/A Snow Light Snow
9:12 AM 10.4 °F -6.0 °F 3.2 °F 73% 29.96 in 10.0 mi North 15.0 mph 19.6 mph N/A Snow Light Snow
9:33 AM 10.4 °F -6.0 °F 5.0 °F 79% 29.97 in 10.0 mi North 15.0 mph - N/A Snow Light Snow
9:52 AM 10.4 °F -6.0 °F 3.2 °F 73% 29.99 in 10.0 mi North 15.0 mph - N/A Snow Light Snow
10:12 AM 10.4 °F -7.7 °F 3.2 °F 73% 29.99 in 10.0 mi North 18.4 mph 23.0 mph N/A Snow Light Snow
10:33 AM 10.4 °F -8.2 °F 3.2 °F 73% 30.01 in 10.0 mi North 19.6 mph 24.2 mph N/A   Overcast
10:52 AM 10.4 °F -8.6 °F 3.2 °F 73% 30.03 in 10.0 mi North 20.7 mph 26.5 mph N/A   Overcast
11:12 AM 8.6 °F -10.5 °F 3.2 °F 79% 30.04 in 10.0 mi North 19.6 mph 27.6 mph N/A   Mostly Cloudy
11:33 AM 10.4 °F -9.5 °F 3.2 °F 73% 30.04 in 10.0 mi North 23.0 mph - N/A   Overcast
11:52 AM 8.6 °F -11.4 °F 1.4 °F 73% 30.04 in 10.0 mi North 21.9 mph 27.6 mph N/A   Mostly Cloudy
12:12 PM 8.6 °F -11.9 °F 1.4 °F 73% 30.05 in 10.0 mi North 23.0 mph 26.5 mph N/A   Mostly Cloudy
12:33 PM 8.6 °F -11.4 °F 1.4 °F 73% 30.05 in 10.0 mi North 21.9 mph 28.8 mph N/A   Scattered Clouds
12:52 PM 8.6 °F -11.0 °F -0.4 °F 67% 30.05 in 10.0 mi North 20.7 mph 26.5 mph N/A   Clear
1:12 PM 6.8 °F -14.7 °F -0.4 °F 72% 30.06 in 10.0 mi North 24.2 mph - N/A   Clear
1:33 PM 6.8 °F -13.8 °F -0.4 °F 72% 30.07 in 10.0 mi North 21.9 mph - N/A   Clear
1:52 PM 6.8 °F -14.7 °F -2.2 °F 67% 30.07 in 10.0 mi North 24.2 mph 29.9 mph N/A   Scattered Clouds
2:12 PM 6.8 °F -14.3 °F -2.2 °F 67% 30.08 in 10.0 mi North 23.0 mph 29.9 mph N/A   Scattered Clouds
2:33 PM 6.8 °F -13.8 °F -2.2 °F 67% 30.09 in 10.0 mi North 21.9 mph - N/A   Mostly Cloudy
2:52 PM 5.0 °F -14.7 °F -2.2 °F 72% 30.09 in 10.0 mi North 18.4 mph - N/A   Scattered Clouds
3:12 PM 5.0 °F -15.2 °F -2.2 °F 72% 30.10 in 10.0 mi North 19.6 mph - N/A   Mostly Cloudy
3:32 PM 5.0 °F -13.0 °F -2.2 °F 72% 30.11 in 10.0 mi North 15.0 mph - N/A   Overcast
3:52 PM 5.0 °F -10.8 °F -2.2 °F 72% 30.11 in 10.0 mi North 11.5 mph - N/A   Overcast
4:13 PM 5.0 °F -15.2 °F -2.2 °F 72% 30.12 in 10.0 mi North 19.6 mph - N/A   Overcast
4:32 PM 5.0 °F -13.6 °F -2.2 °F 72% 30.13 in 10.0 mi North 16.1 mph - N/A   Overcast
4:53 PM 3.2 °F -15.9 °F -2.2 °F 78% 30.13 in 10.0 mi North 16.1 mph 20.7 mph N/A   Overcast
5:12 PM 3.2 °F -15.9 °F -4.0 °F 72% 30.15 in 10.0 mi North 16.1 mph - N/A   Overcast
5:32 PM 3.2 °F -13.1 °F -4.0 °F 72% 30.16 in 10.0 mi North 11.5 mph 17.3 mph N/A   Scattered Clouds
5:53 PM 1.4 °F -13.5 °F -5.8 °F 72% 30.17 in 10.0 mi North 9.2 mph - N/A   Clear
6:12 PM -0.4 °F -14.7 °F -5.8 °F 78% 30.17 in 10.0 mi North 8.1 mph - N/A   Clear
6:32 PM -0.4 °F -16.7 °F -5.8 °F 78% 30.17 in 10.0 mi NNW 10.4 mph - N/A   Clear
6:53 PM -2.2 °F -16.8 °F -7.6 °F 78% 30.18 in 10.0 mi NNW 8.1 mph - N/A   Clear
6:54 PM -2.2 °F -16.8 °F -7.6 °F 78% 30.18 in 10.0 mi North 8.1 mph - N/A   Clear
9:42 PM -7.6 °F -22.1 °F -11.2 °F 84% 30.20 in 10.0 mi NW 6.9 mph - N/A   Clear
9:47 PM -7.6 °F -20.6 °F -11.2 °F 84% 30.21 in 10.0 mi NW 5.8 mph - N/A   Clear
10:12 PM -7.6 °F -18.8 °F -11.2 °F 84% 30.20 in 10.0 mi WNW 4.6 mph - N/A   Clear
10:34 PM -9.4 °F - -13.0 °F 84% 30.20 in 10.0 mi Calm Calm - N/A   Clear
10:53 PM -7.6 °F -16.5 °F -11.2 °F 84% 30.21 in 10.0 mi WSW 3.5 mph - N/A   Clear
11:12 PM -9.4 °F -20.9 °F -13.0 °F 84% 30.21 in 10.0 mi West 4.6 mph - N/A   Clear
11:33 PM -9.4 °F -18.6 °F -14.8 °F 77% 30.21 in 10.0 mi West 3.5 mph - N/A   Clear
11:52 PM -9.4 °F -18.6 °F -13.0 °F 84% 30.21 in 10.0 mi WSW 3.5 mph - N/A   Clear